Tracking 28794 objects as of 19-Apr-2024
HD Live streaming from Space Station
objects crossing your sky now

SL-12 DEB

Track SL-12 DEB now!
10-day predictions


NORAD ID: 25805
Int'l Code: 1987-079Q
Perigee: 492.7 km
Apogee: 15,706.1 km
Inclination: 65.1 °
Period: 288.7 minutes
Semi major axis: 14470 km
RCS: 0.051 m2 (small)
Launch date: September 16, 1987
Source: Commonwealth of Independent States (former USSR) (CIS)
Launch site: TYURATAM MISSILE AND SPACE COMPLEX (TTMTR)

Note: This is SATELLITE DEBRIS
Your satellite tracking list
Your tracking list is empty




NASA's NSSDC Master Catalog

Two Line Element Set (TLE):
1 25805U 87079Q   24109.92760561  .00012258  00000-0  19601-1 0  9999
2 25805  65.1449 318.5601 5256739  86.6121 329.4102  4.98749597 13643
Source of the keplerian elements: AFSPC